Temp
13 13 13 13 12 13 13 13 12 12 12 12 13 13 13 12 12 11 11 11 12 12 12 12 12 12 13 13 13 12 12 12 12 12 12 12 12 12 12 12 12 12
13 13 13 13 13 13 12 12 12 12 12 12 12 13 13 13 12 12 12 12 12 12 13 12 13 13 13 13 13 13 12 12 12 12 12 12 12 12 12 12 12 12
13 13 13 13 13 12 12 12 12 12 12 12 12 13 13 13 12 12 12 12 12 13 13 13 13 13 13 13 13 13 13 13 13 12 12 12 12 12 12 12 12 12
13 13 13 13 13 12 12 12 12 12 12 12 13 13 13 13 12 12 12 12 12 13 13 13 13 13 13 13 13 13 13 13 12 12 12 12 12 12 12 12 12 12
13 13 13 12 12 12 12 12 12 12 12 12 12 12 12 13 13 12 12 12 12 13 13 13 13 13 13 13 13 13 12 12 12 12 13 12 12 12 12 12 12 12
12 12 12 12 12 12 12 12 12 12 12 12 12 12 12 13 13 13 13 12 12 12 13 13 13 12 12 12 12 12 12 12 12 12 12 12 12 12 12 12 12 12
12 12 12 12 12 12 12 12 12 12 12 12 12 12 12 12 12 12 12 12 12 12 12 12 12 12 12 12 12 12 12 12 12 12 12 12 12 12 12 12 12 12
12 12 12 12 12 12 12 12 12 12 12 12 12 13 13 12 12 12 12 12 12 12 12 12 12 12 12 12 11 11 11 11 11 11 12 12 12 12 12 12 12 12
12 12 12 12 12 12 12 12 12 12 12 12 12 13 13 12 12 12 11 11 11 11 11 11 11 11 11 11 11 11 11 11 11 11 11 11 11 12 12 12 12 12
12 12 12 12 12 12 12 12 12 12 12 12 12 13 13 12 12 12 12 11 11 11 11 11 11 11 11 11 11 11 11 11 11 11 11 11 11 11 11 12 12 12
12 12 12 12 12 12 12 12 12 12 11 11 12 12 13 12 12 11 11 11 11 11 11 11 11 11 11 10 11 11 11 11 11 11 11 11 11 11 11 11 12 12
11 12 12 12 12 12 11 11 11 11 11 11 12 12 13 12 12 11 11 11 11 11 11 11 11 11 11 11 11 11 11 11 11 11 11 11 11 11 11 11 11 12
11 11 11 11 12 11 11 11 11 11 11 11 11 12 12 12 11 11 11 11 11 11 11 11 11 11 11 11 11 11 11 11 11 11 11 10 10 10 10 11 11 11
11 11 11 11 11 11 11 11 11 11 11 11 11 12 12 12 11 11 11 11 11 11 11 11 11 11 11 12 11 11 11 11 11 11 11 10 10 10 10 10 10 10
11 11 11 11 11 11 11 11 11 11 11 11 12 11 11 11 11 11 11 11 11 11 11 11 11 11 11 11 11 11 11 11 11 11 11 11 10 10 10 10 10 10
11 11 11 11 11 11 11 11 12 11 11 11 11 11 11 11 11 11 11 11 11 11 11 11 11 11 11 11 11 11 11 11 11 11 11 11 11 10 10 10 10 10
11 11 11 11 11 11 11 11 11 11 11 11 11 11 11 11 11 11 11 11 11 11 11 11 11 11 11 11 11 11 11 11 11 11 11 11 11 10 10 9 9 10
11 11 11 11 11 11 11 11 11 11 11 11 11 11 11 11 11 11 11 11 11 11 11 11 11 11 11 11 11 11 11 11 11 11 11 11 10 10 9 9 9 9
11 11 11 11 11 11 11 11 11 11 11 11 11 11 11 11 11 11 11 11 11 11 11 11 11 11 11 11 11 11 11 11 11 11 11 11 10 10 9 9 9 9
10 10 11 11 11 11 10 10 10 10 10 10 10 10 11 11 10 11 11 11 11 11 11 11 11 11 11 11 11 11 11 11 11 11 11 10 10 10 10 9 9 9
10 10 10 10 10 11 10 10 10 10 10 10 10 10 10 10 10 10 10 11 11 11 11 11 11 11 11 11 11 11 10 10 10 10 10 10 10 10 10 10 9 9
10 10 10 10 10 10 10 10 10 10 10 10 10 10 10 10 10 10 10 10 11 11 11 11 11 11 11 11 10 10 10 10 10 10 10 10 10 10 10 9 9 9
10 10 10 10 10 10 10 10 10 10 9 9 10 10 10 9 9 10 10 10 10 10 10 10 10 10 10 10 10 10 10 10 10 9 9 9 9 9 9 9 9 9
9 9 10 10 10 10 9 9 9 9 9 9 9 9 9 9 9 9 10 10 10 10 10 10 10 10 10 10 10 9 9 9 9 9 9 9 9 9 9 9 8 8
8 8 9 9 9 9 9 9 9 9 9 9 9 9 9 9 9 9 9 9 10 10 10 9 9 10 10 9 9 9 8 8 9 9 9 8 8 9 9 9 9 8
8 8 8 8 8 8 9 9 9 9 9 9 9 9 9 9 9 9 9 9 9 9 9 9 9 9 9 9 9 8 8 8 8 8 8 8 8 8 9 9 9 8
Height
1529 1530 1532 1533 1534 1535 1536 1536 1537 1538 1539 1539 1540 1541 1542 1542 1543 1543 1544 1544 1545 1545 1546 1546 1547 1547 1548 1548 1549 1549 1549 1549 1549 1550 1551 1551 1552 1552 1552 1552 1553 1553
1530 1532 1533 1535 1535 1536 1537 1538 1538 1539 1539 1540 1541 1542 1543 1544 1544 1544 1545 1545 1545 1546 1546 1547 1547 1548 1549 1549 1549 1550 1549 1549 1550 1550 1551 1552 1553 1553 1554 1554 1554 1555
1531 1533 1534 1535 1536 1536 1538 1539 1539 1540 1540 1541 1542 1543 1544 1544 1545 1545 1546 1546 1546 1547 1547 1548 1548 1549 1550 1550 1550 1550 1550 1550 1551 1551 1552 1553 1554 1554 1555 1555 1556 1556
1532 1534 1535 1535 1536 1537 1538 1539 1539 1540 1540 1541 1542 1543 1544 1545 1545 1546 1546 1547 1548 1548 1548 1549 1549 1550 1551 1551 1551 1551 1551 1552 1552 1553 1553 1554 1554 1555 1556 1557 1557 1558
1533 1534 1535 1535 1536 1537 1538 1538 1539 1540 1541 1542 1543 1544 1545 1545 1546 1546 1547 1548 1549 1549 1549 1550 1550 1551 1552 1552 1552 1552 1553 1553 1554 1555 1555 1555 1555 1556 1557 1558 1559 1559
1533 1534 1534 1535 1536 1537 1538 1538 1540 1540 1541 1543 1544 1545 1546 1546 1547 1547 1548 1549 1550 1550 1551 1551 1551 1552 1552 1553 1553 1554 1555 1555 1556 1556 1556 1556 1556 1557 1557 1558 1560 1560
1531 1532 1533 1534 1535 1536 1537 1538 1539 1540 1542 1543 1544 1545 1546 1547 1548 1549 1549 1550 1551 1551 1552 1552 1552 1552 1553 1554 1554 1555 1556 1557 1557 1557 1558 1557 1557 1558 1558 1559 1560 1561
1528 1530 1532 1533 1534 1535 1537 1537 1539 1540 1541 1543 1544 1545 1547 1548 1549 1550 1551 1551 1552 1553 1553 1553 1553 1553 1554 1554 1555 1556 1556 1557 1558 1558 1558 1558 1558 1559 1559 1560 1561 1561
1528 1530 1531 1533 1534 1536 1537 1537 1538 1539 1541 1542 1543 1544 1546 1548 1550 1551 1552 1552 1553 1554 1554 1554 1554 1555 1555 1555 1556 1556 1557 1557 1558 1558 1559 1559 1559 1560 1560 1560 1561 1561
1528 1530 1531 1532 1534 1535 1536 1537 1538 1539 1541 1542 1543 1544 1546 1548 1550 1552 1553 1553 1554 1554 1555 1555 1555 1555 1556 1556 1556 1556 1557 1557 1558 1559 1559 1559 1560 1560 1560 1561 1561 1561
1528 1529 1530 1531 1533 1535 1536 1537 1539 1540 1541 1541 1542 1544 1546 1548 1550 1552 1553 1554 1555 1555 1555 1555 1555 1556 1556 1556 1557 1557 1557 1557 1558 1559 1559 1560 1560 1561 1561 1561 1561 1562
1528 1529 1530 1531 1532 1534 1536 1538 1538 1539 1540 1540 1541 1543 1545 1548 1549 1551 1553 1554 1555 1555 1555 1555 1555 1556 1556 1557 1557 1557 1557 1558 1558 1559 1559 1560 1560 1561 1561 1562 1562 1562
1527 1529 1530 1532 1532 1533 1535 1536 1537 1538 1538 1539 1540 1542 1545 1547 1549 1551 1552 1554 1555 1555 1555 1555 1555 1556 1556 1557 1557 1557 1558 1558 1558 1559 1559 1560 1560 1561 1561 1561 1562 1562
1526 1527 1529 1531 1532 1533 1535 1535 1536 1537 1537 1538 1539 1541 1544 1546 1548 1550 1551 1552 1554 1554 1554 1554 1555 1555 1556 1556 1557 1557 1557 1557 1558 1558 1558 1559 1560 1560 1560 1561 1561 1561
1524 1526 1528 1529 1531 1533 1535 1535 1535 1536 1537 1538 1539 1541 1543 1545 1547 1548 1549 1551 1551 1552 1553 1553 1554 1554 1555 1555 1556 1556 1556 1557 1557 1557 1557 1558 1558 1558 1559 1559 1559 1560
1523 1524 1526 1528 1529 1531 1533 1534 1535 1536 1537 1538 1539 1540 1542 1544 1545 1546 1547 1548 1549 1550 1551 1551 1552 1553 1553 1554 1555 1555 1555 1555 1556 1556 1556 1556 1556 1556 1556 1557 1557 1558
1522 1523 1525 1526 1528 1529 1531 1532 1533 1534 1535 1536 1537 1538 1540 1542 1543 1544 1545 1546 1547 1548 1549 1549 1550 1551 1552 1553 1553 1554 1554 1554 1554 1554 1554 1554 1553 1553 1554 1555 1555 1556
1521 1522 1523 1525 1526 1527 1528 1530 1531 1532 1533 1534 1535 1536 1538 1540 1541 1542 1542 1543 1544 1545 1546 1547 1548 1549 1550 1551 1552 1552 1553 1553 1553 1553 1552 1552 1552 1552 1553 1553 1554 1555
1520 1521 1522 1524 1525 1526 1527 1528 1529 1530 1531 1532 1533 1534 1536 1537 1538 1539 1540 1541 1542 1543 1544 1545 1546 1547 1548 1549 1550 1551 1551 1551 1551 1551 1551 1551 1551 1551 1552 1553 1553 1554
1520 1520 1521 1523 1524 1524 1525 1526 1528 1529 1530 1531 1531 1532 1533 1534 1535 1537 1538 1539 1540 1541 1542 1543 1544 1545 1546 1547 1548 1549 1549 1549 1549 1550 1549 1550 1550 1551 1551 1552 1552 1553
1519 1520 1520 1521 1522 1523 1524 1525 1526 1527 1528 1529 1529 1530 1531 1533 1534 1535 1536 1537 1538 1539 1540 1541 1542 1543 1544 1545 1546 1546 1547 1547 1547 1548 1548 1549 1550 1550 1550 1551 1552 1553
1519 1520 1520 1520 1520 1521 1523 1523 1524 1525 1526 1527 1528 1529 1530 1531 1532 1533 1534 1535 1536 1537 1538 1538 1539 1540 1541 1542 1543 1544 1545 1545 1546 1546 1547 1548 1549 1549 1549 1550 1551 1552
1520 1520 1520 1520 1520 1521 1521 1522 1523 1524 1524 1525 1527 1528 1529 1530 1530 1530 1531 1533 1534 1535 1535 1536 1537 1538 1539 1540 1540 1541 1542 1543 1543 1544 1545 1546 1547 1548 1548 1549 1550 1550
1520 1521 1521 1521 1521 1521 1521 1521 1522 1523 1524 1525 1526 1527 1529 1530 1529 1529 1529 1531 1533 1533 1533 1534 1535 1536 1537 1537 1538 1539 1540 1541 1542 1543 1543 1544 1545 1546 1547 1547 1548 1549
1520 1520 1520 1520 1521 1521 1521 1521 1522 1523 1524 1524 1525 1526 1528 1528 1528 1528 1528 1529 1530 1531 1531 1532 1533 1534 1534 1535 1536 1537 1539 1540 1541 1542 1542 1543 1544 1545 1545 1546 1546 1547
1520 1520 1520 1520 1520 1521 1521 1521 1522 1523 1523 1524 1524 1525 1526 1526 1527 1527 1527 1527 1528 1529 1529 1530 1531 1532 1533 1534 1535 1536 1537 1539 1540 1540 1541 1542 1544 1544 1544 1545 1545 1546
Wind_Speed
22 21 20 19 19 19 19 18 17 14 13 13 12 11 11 14 17 16 15 13 11 8 6 7 9 10 11 12 12 13 13 13 13 13 14 14 13 12 12 12 11 12
21 21 19 18 19 19 18 17 15 13 13 14 13 12 12 13 15 16 15 13 11 8 8 9 10 11 11 12 12 13 13 12 11 12 13 15 14 13 13 12 11 11
21 20 18 17 18 19 18 17 14 12 13 15 14 13 12 13 14 15 14 13 12 11 12 13 13 13 13 12 12 12 12 11 10 10 12 14 15 15 14 12 12 11
20 18 17 16 18 19 18 16 14 12 13 15 14 12 12 13 15 16 15 14 13 14 16 16 16 16 16 15 15 14 13 11 10 9 11 13 15 16 16 14 13 14
18 17 16 16 18 19 17 16 13 12 13 13 12 11 12 15 17 17 17 16 15 17 18 18 18 18 18 17 17 16 15 14 13 12 12 13 14 15 17 15 15 16
18 17 16 16 19 18 16 14 13 12 11 10 10 12 14 16 18 19 19 19 19 19 19 19 19 18 17 17 16 16 15 14 14 13 13 14 13 14 15 16 16 15
20 18 18 18 19 18 16 14 13 12 9 8 10 13 16 18 18 20 21 20 20 19 19 18 17 17 16 15 16 15 14 13 12 12 12 12 13 13 12 14 16 16
22 21 20 20 20 18 16 15 15 13 10 9 12 15 17 18 19 21 21 19 18 17 16 16 15 15 16 15 16 16 14 12 11 10 11 11 11 11 10 11 14 16
24 23 22 21 19 17 16 17 16 13 11 10 13 17 19 19 20 21 19 18 17 15 15 15 14 14 15 15 15 14 13 12 10 9 10 11 10 10 10 11 13 15
24 24 23 22 20 17 17 17 15 13 11 9 11 17 19 19 20 19 17 16 16 15 14 15 14 13 13 14 14 14 13 12 10 8 10 11 11 11 10 11 13 15
24 24 25 23 20 18 17 16 15 13 11 9 11 16 18 18 19 17 14 14 14 13 13 14 15 14 13 13 15 15 12 11 10 9 10 11 10 10 9 10 12 14
22 24 24 22 19 19 18 17 15 14 12 10 11 14 16 17 17 15 13 12 11 11 12 14 15 14 12 13 15 15 12 11 9 9 10 10 10 10 9 9 9 11
21 22 21 19 18 19 20 19 18 16 14 13 13 15 15 16 16 15 13 13 12 12 13 14 14 13 12 13 14 13 11 10 9 8 9 10 10 11 11 11 10 10
22 21 19 19 19 21 22 21 20 18 16 15 17 19 17 15 15 16 15 16 15 14 15 14 14 13 12 12 12 10 10 10 9 9 9 10 12 13 14 14 13 12
22 20 18 19 21 22 23 22 19 17 17 18 20 22 20 16 17 17 18 19 19 18 18 16 15 14 13 12 11 10 10 10 10 10 11 12 13 15 17 18 18 16
21 20 19 20 20 21 23 23 19 17 19 19 20 23 23 19 20 21 20 21 21 21 20 19 17 16 16 15 13 12 12 12 12 13 13 13 15 16 18 21 21 20
18 18 18 19 20 21 23 24 21 19 21 23 24 25 25 22 23 24 23 22 23 23 22 21 19 18 18 17 16 16 15 14 14 14 14 14 14 14 15 18 20 20
13 15 16 17 18 19 20 21 20 19 21 25 26 26 26 25 25 27 25 24 25 25 24 22 20 19 18 17 17 17 17 16 15 14 14 13 11 12 12 14 17 18
12 13 15 16 17 18 19 20 21 22 23 26 26 26 27 28 28 27 27 26 26 26 25 23 21 19 17 16 16 16 17 18 17 16 15 14 12 12 13 14 16 18
10 12 14 15 16 18 19 19 21 24 25 26 28 28 29 29 27 25 25 26 25 25 24 24 22 21 19 18 17 17 18 19 18 17 17 16 14 13 14 15 15 16
8 10 12 14 14 16 18 20 21 23 24 26 28 31 31 29 26 24 24 25 25 24 24 24 23 22 21 20 18 18 19 19 19 19 19 17 16 15 15 15 15 14
8 9 9 10 11 13 15 18 20 21 22 23 26 29 30 28 26 25 24 23 23 23 23 23 23 22 21 20 19 19 20 20 21 21 20 19 18 16 16 15 13 13
6 6 6 7 8 8 8 11 15 18 20 21 22 24 25 24 24 24 24 23 23 22 22 22 21 21 21 20 20 21 21 22 24 23 21 20 18 16 15 14 13 12
6 5 4 3 4 4 3 4 8 12 16 18 19 20 21 20 19 21 21 21 22 23 22 20 19 20 21 20 20 21 23 24 24 23 21 19 17 15 15 15 14 13
8 6 4 4 2 2 2 1 2 5 10 13 16 18 19 18 17 18 19 19 20 22 22 19 19 19 19 19 22 24 24 23 23 21 20 18 17 16 15 15 15 14
11 9 7 6 4 3 3 2 1 2 4 7 10 12 13 13 14 15 16 16 17 19 19 17 17 16 17 20 25 26 24 23 22 21 21 20 17 15 15 15 15 14
Wind_Direction
192 193 193 193 198 197 190 188 187 186 186 182 176 168 164 167 172 178 181 181 185 186 170 140 131 132 135 136 140 149 159 165 162 161 165 162 156 152 144 140 140 140
193 196 198 200 201 194 188 189 191 192 190 186 184 178 168 165 171 181 186 184 183 173 145 131 129 131 131 133 137 140 146 151 149 153 165 166 161 155 145 136 135 137
194 199 202 203 198 191 189 189 189 188 184 182 182 176 165 161 166 175 181 179 172 153 132 125 124 123 123 124 128 131 134 137 137 143 157 164 166 161 149 136 129 129
194 197 198 198 195 191 188 185 186 185 179 176 175 170 163 160 163 169 173 172 161 143 131 127 126 124 123 121 120 119 118 119 119 126 139 151 161 163 156 146 136 129
189 191 193 192 189 186 183 184 187 182 173 171 171 169 164 160 161 165 166 163 154 142 135 132 129 127 125 123 121 120 118 115 112 113 120 131 147 160 163 158 147 136
185 190 191 187 183 181 184 188 186 175 168 169 170 169 167 163 161 160 159 156 151 145 140 136 132 130 129 128 128 126 123 121 118 117 118 121 129 145 160 168 164 151
188 189 186 182 181 183 189 189 181 175 173 171 169 169 169 165 161 158 156 154 153 150 145 141 140 139 139 138 136 131 126 125 129 134 133 131 131 133 143 162 173 172
189 185 181 182 183 185 190 186 180 180 182 174 171 172 170 167 164 161 159 158 157 154 149 146 147 145 142 141 140 135 127 125 134 144 144 142 142 140 140 150 165 176
186 182 181 183 184 186 189 187 182 183 184 177 173 174 171 169 170 168 165 163 162 161 155 152 153 148 142 145 149 145 138 136 139 147 148 145 146 150 157 162 162 168
182 180 181 181 183 185 187 187 184 183 183 181 179 178 174 172 175 177 173 168 168 170 164 160 162 158 153 160 164 158 153 153 153 159 161 156 156 157 161 169 172 173
176 179 180 178 179 182 183 182 182 181 180 179 178 178 178 177 178 181 179 174 176 177 173 171 172 171 168 172 175 171 167 166 167 175 177 174 177 176 167 168 175 180
175 175 176 176 178 182 185 183 181 179 175 166 162 172 183 185 182 182 180 179 180 180 180 181 180 181 180 176 177 179 179 180 181 185 189 191 195 197 191 184 181 184
184 184 183 182 183 185 187 186 180 177 172 159 154 168 184 190 186 185 185 186 190 192 192 191 188 192 192 184 182 186 189 191 193 197 199 201 206 210 211 210 205 198
195 197 195 193 190 186 186 185 180 178 173 164 166 172 183 196 195 192 193 194 198 205 205 203 201 203 204 199 198 203 205 203 206 212 213 213 215 216 218 220 220 216
196 197 196 196 195 192 191 189 187 186 175 170 178 179 183 200 204 201 202 201 203 211 213 213 213 215 217 217 220 223 222 221 227 231 232 234 235 231 225 223 223 222
200 205 206 207 207 205 204 202 204 205 194 193 201 193 190 203 208 204 207 207 207 213 218 219 219 220 225 231 236 238 236 237 242 247 249 253 254 245 231 224 224 223
205 211 214 216 216 217 219 220 224 226 216 215 214 202 198 208 209 204 207 211 214 217 220 222 223 224 229 236 242 244 243 240 240 248 258 262 256 241 228 221 218 216
208 212 216 219 218 219 223 224 222 217 210 209 209 204 205 211 210 208 210 213 217 220 222 224 225 227 230 234 239 243 244 240 240 249 257 257 242 219 211 210 207 204
211 214 217 221 223 224 226 223 217 211 208 209 210 209 209 210 210 212 214 214 216 219 224 227 229 231 233 234 238 243 244 242 243 248 248 242 226 206 198 199 199 198
206 215 217 219 220 223 225 222 218 216 217 218 217 212 210 209 209 212 216 218 220 222 227 231 233 236 239 242 245 245 242 241 242 242 237 229 219 206 197 194 193 194
169 190 204 213 216 217 220 220 220 221 222 222 220 216 214 215 213 214 217 220 222 225 229 232 234 238 242 245 246 240 237 239 238 232 226 219 212 206 202 197 191 191
142 161 180 202 214 218 220 221 223 226 225 222 221 220 222 224 223 221 221 222 223 225 228 232 235 239 243 244 241 237 236 234 228 222 216 211 206 204 204 201 198 199
115 134 158 183 202 214 221 223 223 226 226 225 225 224 223 223 220 218 219 221 224 226 229 232 236 239 242 243 240 236 230 222 217 215 212 208 204 204 206 207 209 211
100 92 100 138 172 184 197 221 230 232 233 234 234 232 230 227 223 221 222 224 228 234 238 238 240 242 243 241 234 223 215 212 213 213 211 208 206 206 208 211 212 211
122 118 100 87 92 121 123 133 218 234 237 239 240 241 242 242 240 240 241 238 236 239 241 242 242 243 241 231 218 208 204 207 211 212 212 213 213 209 204 203 207 210
118 129 129 121 116 107 97 100 144 220 227 232 234 237 240 243 242 243 243 243 239 236 233 232 232 230 223 211 205 203 204 206 210 215 216 213 211 208 203 200 202 205